[[{"header":{"parameterUnit":"m.s-1","parameterCategory":1,"la1":30.2991,"la2":30.254,"lo1":-89.0895,"lo2":-89.0444,"dy":0.0017,"dx":0.0017,"nx":28,"ny":28,"refTime":"2024-08-05T09:00:00:Z","depth":0,"parameterNumber":2,"parameterNumberName":"U-component_of_WINDS"},"data":[0,0,0,0,0,0,0,0,0,0,0,0,0,0,0,0,0,0,0,0,0,0,0,0,0,0,0,0,0,0,0,0,0,0,0,0,0,0,0,0,0,0,0,0,0,0,0,0,0,0,0,0,0,0,0,0,0,0,1.0236,1.0235,0,1.0193,1.0192,1.0192,1.0165,1.0165,1.0165,1.0165,1.0116,1.0115,1.0114,0,0,0,0,0,0,0,0,0,0,0,0,0,1.0292,1.0292,1.0236,1.0235,1.0235,1.0193,1.0192,1.0191,1.0165,1.0165,1.0165,1.0165,1.0117,1.0115,1.0114,0,0,0,0,0,0,0,0,0,0,0,0,0,1.026,1.0291,1.0236,1.0217,1.0215,1.0193,1.0192,1.0191,1.0165,1.0165,1.0165,1.0164,1.0117,1.0115,1.0114,1.0107,0,0,1.0108,1.0108,0,0,0,0,0,0,0,0,1.0262,1.0258,1.022,1.0218,1.0216,1.0184,1.0194,1.0163,1.0165,1.0184,1.0165,1.0164,1.0139,1.0135,1.0127,1.0104,1.0102,1.0108,1.0107,1.0106,1.0106,0,0,0,0,0,0,0,1.0264,1.026,1.0219,1.022,1.0217,1.0209,1.0204,1.0188,1.0163,1.0182,1.018,1.0175,1.0137,1.0129,1.0126,1.0102,1.0108,1.0107,1.0106,1.0105,1.0071,1.0071,0,0,0,0,0,0,1.027,1.0262,1.022,1.0217,1.0239,1.0208,1.0203,1.0194,1.0163,1.0158,1.0176,1.0174,1.0132,1.0128,1.0124,1.0114,1.0106,1.0105,1.0104,1.007,1.0071,1.0071,0,0,0,0,0,0,1.0272,1.0267,1.0222,1.0239,1.0233,1.0207,1.0198,1.0194,1.0185,1.0158,1.0153,1.0172,1.0132,1.0127,1.0112,1.0112,1.0104,1.0102,1.007,1.0071,1.0071,1.0093,0,0,0,0,0,0,1.0273,1.0267,1.0265,1.0239,1.0232,1.0211,1.0198,1.0193,1.0183,1.0181,1.0153,1.0149,1.0131,1.0114,1.011,1.0109,1.0101,1.007,1.007,1.0071,1.0092,1.0094,1.0096,0,0,0,0,0,1.0275,1.0272,1.0265,1.026,1.0229,1.0211,1.0207,1.0188,1.0183,1.018,1.0163,1.0149,1.0113,1.0113,1.0108,1.0107,1.007,1.007,1.0071,1.0091,1.0094,1.0096,0,0,0,0,0,0,1.0297,1.0269,1.026,1.0249,1.0233,1.0207,1.0202,1.0191,1.0175,1.0173,1.015,1.0144,1.0131,1.0117,1.0118,1.0098,1.009,1.0089,1.0107,1.0109,1.0111,1.0114,1.01,0,0,0,0,0,1.0301,1.029,1.0265,1.0258,1.025,1.0228,1.0219,1.0206,1.0188,1.0181,1.0162,1.0144,1.0128,1.0118,1.0102,1.009,1.0084,1.0087,1.0089,1.009,1.009,1.0082,1.0083,1.0072,1.0072,1.0072,0,0,1.0308,1.0291,1.0286,1.0262,1.0248,1.0236,1.0222,1.021,1.02,1.0178,1.0163,1.0149,1.0127,1.0114,1.0107,1.0102,1.0091,1.0091,1.0092,1.009,1.0083,1.0084,1.0085,1.0072,1.0072,1.0072,0,0,1.0315,1.0302,1.0294,1.0281,1.026,1.0245,1.0244,1.0219,1.0209,1.0194,1.0177,1.0165,1.0139,1.0124,1.0112,1.0115,1.0102,1.011,1.0119,1.0112,1.0113,1.0113,1.0114,1.0114,1.011,1.011,1.011,0,1.0327,1.0309,1.0291,1.028,1.027,1.0251,1.0242,1.023,1.0204,1.0197,1.0193,1.0159,1.0143,1.0126,1.0127,1.0118,1.0115,1.0113,1.0114,1.0115,1.0115,1.0115,1.0115,1.0111,1.0111,1.0111,1.0111,0,1.0324,1.0312,1.0308,1.0285,1.0275,1.0265,1.0245,1.0236,1.0224,1.021,1.0194,1.0174,1.0154,1.0149,1.0137,1.013,1.0128,1.0119,1.011,1.0117,1.0117,1.0117,1.0113,1.0112,1.0112,1.0112,0,0,1.0342,1.0311,1.031,1.03,1.0276,1.0266,1.0255,1.0236,1.0229,1.0212,1.0202,1.0181,1.0173,1.016,1.0146,1.014,1.0143,1.0132,1.0131,1.0134,1.0133,1.014,1.014,1.0135,1.0135,1.0134,1.0135,0,1.0345,1.0326,1.031,1.0297,1.0285,1.0267,1.0258,1.0242,1.0228,1.0215,1.02,1.0185,1.0176,1.0168,1.0161,1.0144,1.0142,1.0144,1.0124,1.0123,1.0129,1.014,1.0146,1.0148,1.0135,1.0135,1.0135,0,1.0346,1.0332,1.0318,1.0295,1.029,1.0282,1.0264,1.0252,1.0233,1.0224,1.0211,1.0196,1.0183,1.0176,1.0157,1.0159,1.015,1.014,1.0139,1.0136,1.0129,1.0136,1.0148,1.0148,1.0134,1.0134,1.0134,0,1.0361,1.0338,1.0326,1.0318,1.0292,1.0287,1.0275,1.0256,1.0246,1.023,1.0223,1.0206,1.0195,1.0181,1.0162,1.0159,1.0145,1.0137,1.0136,1.0136,1.0133,1.0133,1.0143,1.0128,1.0128,1.0128,1.0128,0,1.0365,1.0357,1.0332,1.0325,1.0316,1.0297,1.0287,1.0274,1.0258,1.0247,1.023,1.022,1.0196,1.0183,1.0168,1.0154,1.015,1.0141,1.0137,1.0142,1.0143,1.0135,1.0134,1.0128,1.0128,1.0128,1.0128,0,1.0379,1.0363,1.0349,1.0326,1.032,1.0314,1.0294,1.0285,1.0271,1.0258,1.0254,1.0231,1.0215,1.0195,1.0172,1.0161,1.0149,1.0143,1.0156,1.0153,1.0153,1.0153,1.0157,1.0157,1.0144,1.0144,1.0144,0,1.0383,1.0377,1.0354,1.0346,1.0336,1.0323,1.0314,1.0295,1.0285,1.0263,1.0258,1.0241,1.0226,1.02,1.0181,1.0163,1.0156,1.0159,1.0153,1.0159,1.0156,1.0156,1.0155,1.016,1.016,1.0161,1.0161,0,1.0391,1.0384,1.0371,1.0356,1.0345,1.0331,1.0317,1.0311,1.0289,1.0279,1.0263,1.0252,1.0229,1.0212,1.0192,1.0178,1.0165,1.0163,1.0162,1.0166,1.0174,1.0169,1.0159,1.0163,1.0162,1.0162,1.0162,1.0162,1.04,1.0394,1.0377,1.0363,1.0351,1.0338,1.0329,1.0315,1.0301,1.0282,1.0272,1.0256,1.0237,1.0209,1.0196,1.0183,1.0178,1.0176,1.0176,1.0176,1.0177,1.0177,1.0179,1.0179,1.0179,1.0179,1.0179,0,1.0407,1.0396,1.0383,1.0365,1.0354,1.0345,1.0328,1.0319,1.0306,1.029,1.0277,1.0258,1.0241,1.0221,1.0203,1.0196,1.019,1.0192,1.0192,1.0189,1.0182,1.0185,1.0197,1.0197,1.0197,1.0197,1.0197,1.0197,1.0409,1.0398,1.0388,1.0371,1.0359,1.0344,1.0336,1.0323,1.0311,1.0291,1.0278,1.0266,1.0248,1.0228,1.0212,1.0207,1.02,1.0204,1.0197,1.0191,1.0189,1.0188,1.019,1.0203,1.0203,1.0204,1.0204,1.0204]},{"header":{"parameterUnit":"m.s-1","parameterCategory":1,"la1":30.2991,"la2":30.254,"lo1":-89.0895,"lo2":-89.0444,"dy":0.0017,"dx":0.0017,"nx":28,"ny":28,"refTime":"2024-08-05T09:00:00:Z","depth":0,"parameterNumber":3,"parameterNumberName":"V-component_of_WINDS"},"data":[0,0,0,0,0,0,0,0,0,0,0,0,0,0,0,0,0,0,0,0,0,0,0,0,0,0,0,0,0,0,0,0,0,0,0,0,0,0,0,0,0,0,0,0,0,0,0,0,0,0,0,0,0,0,0,0,0,0,-2.2212,-2.2212,0,-2.2264,-2.2264,-2.2265,-2.2241,-2.224,-2.2238,-2.2237,-2.2288,-2.2291,-2.2294,0,0,0,0,0,0,0,0,0,0,0,0,0,-2.209,-2.2093,-2.2212,-2.2212,-2.2213,-2.2264,-2.2264,-2.2265,-2.2241,-2.224,-2.2238,-2.2237,-2.2288,-2.2291,-2.2294,0,0,0,0,0,0,0,0,0,0,0,0,0,-2.2143,-2.2093,-2.2212,-2.2207,-2.2207,-2.2264,-2.2265,-2.2265,-2.2241,-2.224,-2.2238,-2.2236,-2.2287,-2.229,-2.2294,-2.2357,0,0,-2.2306,-2.2308,0,0,0,0,0,0,0,0,-2.214,-2.2147,-2.2207,-2.2208,-2.2208,-2.2244,-2.224,-2.2296,-2.2242,-2.2228,-2.2237,-2.2235,-2.2275,-2.228,-2.2294,-2.236,-2.2362,-2.2306,-2.2309,-2.231,-2.2311,0,0,0,0,0,0,0,-2.2136,-2.2145,-2.2232,-2.2208,-2.2209,-2.2202,-2.2208,-2.2251,-2.2262,-2.2229,-2.2228,-2.2234,-2.2275,-2.229,-2.2295,-2.2363,-2.2306,-2.231,-2.2312,-2.2314,-2.2484,-2.2486,0,0,0,0,0,0,-2.2133,-2.2142,-2.2231,-2.2234,-2.2168,-2.2206,-2.2212,-2.2234,-2.2262,-2.2264,-2.2236,-2.2233,-2.2284,-2.229,-2.2297,-2.2373,-2.231,-2.2314,-2.2316,-2.2481,-2.2484,-2.2486,0,0,0,0,0,0,-2.213,-2.2141,-2.2228,-2.2188,-2.2198,-2.221,-2.2236,-2.2236,-2.2252,-2.2267,-2.2268,-2.225,-2.2283,-2.2291,-2.2343,-2.2374,-2.2316,-2.2319,-2.2479,-2.2482,-2.2485,-2.2526,0,0,0,0,0,0,-2.2127,-2.214,-2.2165,-2.2188,-2.22,-2.2274,-2.2237,-2.2239,-2.2259,-2.2255,-2.228,-2.2282,-2.2282,-2.2337,-2.2347,-2.2379,-2.2322,-2.2476,-2.248,-2.2484,-2.2521,-2.253,-2.2537,0,0,0,0,0,-2.2123,-2.2173,-2.2166,-2.2177,-2.2231,-2.2276,-2.2283,-2.2283,-2.2261,-2.2286,-2.2295,-2.2281,-2.2369,-2.2343,-2.2353,-2.2387,-2.2474,-2.2479,-2.2484,-2.2518,-2.2528,-2.2537,0,0,0,0,0,0,-2.2152,-2.2176,-2.2168,-2.2228,-2.225,-2.2272,-2.2303,-2.2294,-2.2322,-2.2318,-2.2316,-2.2321,-2.2375,-2.2386,-2.2356,-2.245,-2.2418,-2.2426,-2.2441,-2.245,-2.2458,-2.2454,-2.2325,0,0,0,0,0,-2.2165,-2.22,-2.2219,-2.227,-2.2282,-2.2291,-2.231,-2.2308,-2.2331,-2.234,-2.2353,-2.2376,-2.2408,-2.243,-2.2461,-2.2523,-2.2528,-2.2551,-2.2559,-2.2565,-2.2572,-2.2606,-2.2617,-2.2503,-2.2503,-2.2503,0,0,-2.2193,-2.2211,-2.2233,-2.2277,-2.2294,-2.233,-2.2299,-2.2338,-2.2365,-2.2346,-2.2396,-2.2406,-2.2431,-2.2489,-2.2514,-2.2499,-2.2604,-2.2572,-2.2576,-2.2579,-2.2612,-2.2623,-2.2633,-2.2506,-2.2505,-2.2505,0,0,-2.2263,-2.228,-2.2324,-2.2342,-2.2369,-2.2375,-2.2385,-2.2409,-2.2416,-2.2466,-2.2453,-2.2484,-2.254,-2.2559,-2.2576,-2.2653,-2.2642,-2.2663,-2.2704,-2.2737,-2.2746,-2.2754,-2.2783,-2.2793,-2.267,-2.267,-2.267,0,-2.2294,-2.2348,-2.2348,-2.2389,-2.2409,-2.2394,-2.244,-2.2457,-2.2492,-2.2506,-2.2488,-2.256,-2.2575,-2.2637,-2.2656,-2.267,-2.2682,-2.2661,-2.2745,-2.2753,-2.2761,-2.2788,-2.2798,-2.2672,-2.2672,-2.2672,-2.2671,0,-2.2386,-2.2424,-2.2457,-2.2492,-2.2515,-2.2558,-2.2564,-2.2588,-2.2584,-2.2592,-2.2643,-2.2662,-2.2696,-2.2711,-2.2707,-2.2773,-2.2762,-2.2745,-2.2714,-2.2774,-2.2799,-2.281,-2.2676,-2.2675,-2.2674,-2.2674,0,0,-2.2475,-2.251,-2.2522,-2.2539,-2.2568,-2.2597,-2.2639,-2.2674,-2.2694,-2.2719,-2.2755,-2.2803,-2.2788,-2.2807,-2.2805,-2.2835,-2.2896,-2.2814,-2.2815,-2.2829,-2.297,-2.2983,-2.2995,-2.2888,-2.289,-2.2892,-2.2968,0,-2.2547,-2.2622,-2.2623,-2.2692,-2.2727,-2.2714,-2.2751,-2.2773,-2.2781,-2.2812,-2.2821,-2.2855,-2.2832,-2.2844,-2.2872,-2.2883,-2.2924,-2.2877,-2.2921,-2.2923,-2.2916,-2.3008,-2.3022,-2.3093,-2.2978,-2.298,-2.2981,0,-2.2641,-2.267,-2.2742,-2.2767,-2.2782,-2.2815,-2.2848,-2.2877,-2.2902,-2.2906,-2.2928,-2.2922,-2.2965,-2.2932,-2.2992,-2.2959,-2.2977,-2.2985,-2.2988,-2.2992,-2.2956,-2.3015,-2.3116,-2.3127,-2.2996,-2.2995,-2.2994,0,-2.2699,-2.2756,-2.2807,-2.2821,-2.2851,-2.2875,-2.2889,-2.2911,-2.2932,-2.2961,-2.2974,-2.3007,-2.3025,-2.305,-2.3053,-2.3029,-2.3113,-2.3081,-2.3118,-2.3118,-2.3136,-2.3135,-2.3241,-2.3147,-2.3147,-2.3147,-2.3147,0,-2.278,-2.2824,-2.2834,-2.2865,-2.2915,-2.2917,-2.2966,-2.2977,-2.2998,-2.3031,-2.3022,-2.3053,-2.3055,-2.3087,-2.309,-2.3139,-2.3147,-2.3151,-2.3152,-2.3153,-2.3152,-2.3165,-2.316,-2.315,-2.3149,-2.3149,-2.3148,0,-2.2853,-2.2861,-2.2916,-2.294,-2.2948,-2.2984,-2.3004,-2.3034,-2.3042,-2.3084,-2.3094,-2.3106,-2.3143,-2.3149,-2.3193,-2.3194,-2.3254,-2.3248,-2.3246,-2.3245,-2.3282,-2.3279,-2.3401,-2.3417,-2.3312,-2.3313,-2.3314,0,-2.2904,-2.2939,-2.2967,-2.2989,-2.3004,-2.304,-2.3062,-2.3064,-2.3088,-2.3119,-2.3145,-2.3182,-2.3211,-2.3272,-2.3284,-2.3317,-2.3313,-2.3353,-2.3318,-2.3318,-2.3314,-2.3313,-2.3316,-2.336,-2.3361,-2.3362,-2.3363,0,-2.2994,-2.2997,-2.3029,-2.3064,-2.309,-2.3117,-2.3143,-2.3161,-2.3167,-2.3194,-2.3232,-2.3255,-2.3301,-2.3337,-2.3371,-2.3384,-2.3375,-2.3374,-2.3385,-2.3386,-2.3384,-2.3386,-2.3265,-2.3371,-2.3371,-2.337,-2.337,-2.3369,-2.3058,-2.3089,-2.3114,-2.3151,-2.317,-2.3195,-2.3224,-2.3236,-2.3269,-2.3307,-2.3306,-2.3349,-2.3373,-2.3417,-2.3433,-2.3466,-2.3453,-2.3468,-2.3472,-2.3476,-2.348,-2.3378,-2.3472,-2.3472,-2.3471,-2.3471,-2.3471,0,-2.3148,-2.3164,-2.3198,-2.3234,-2.3264,-2.3253,-2.3281,-2.3306,-2.3344,-2.3367,-2.3397,-2.3442,-2.3478,-2.3494,-2.3529,-2.3552,-2.3549,-2.3562,-2.356,-2.3563,-2.3489,-2.3477,-2.3564,-2.3564,-2.3564,-2.3564,-2.3564,-2.3564,-2.3198,-2.325,-2.3256,-2.3317,-2.3332,-2.3375,-2.3392,-2.3414,-2.3433,-2.3484,-2.3514,-2.3524,-2.3545,-2.3582,-2.3614,-2.3618,-2.3631,-2.3646,-2.3648,-2.3578,-2.3569,-2.356,-2.3548,-2.3649,-2.3649,-2.372,-2.372,-2.3721]}]]